map of GUY home
GUY - Airport
Location
City:  Guymon, Oklahoma, United States
Name:Guymon Municipal Airport
ICAO:KGUY
IATA:GUY
FAA LID:GUY

Details
Type:Airport (Airfield)
Use:Public/Civil
Latitude:3641'03"N (36.684155)
Longitude:10130'25"W (-101.506968)
Datum:WGS 1984
Elevation:3125 ft (953 m)
Variation:6.02E (WMM2015v2 magnetic declination)
-0.10 annual change
Runways:2
Longest:5904 × 100 ft (1800 × 30.5 m), paved

Time
Time Zone:UTC-6 (DST-5)
Local Time:

Weather
METAR:KGUY 041353Z AUTO 26008KT 10SM CLR 01/M04 A2983 RMK AO2 SLP089 T00061044
TAF:KGUY 041124Z 0412/0512 VRB06KT P6SM SKC
FM041700 07007KT P6SM FEW250
FM041800 10009KT P6SM FEW250
FM042100 13012KT P6SM FEW250
FM051000 16008KT P6SM SCT050

Related Locations
Nearby:
Farthest:RRG: 10953 mi / 17628 km
Plaine Corail [Sir Gatan Duval Airport (Plaine Corail Airport)], Rodrigues Island, MU

Find:

   beyond  
but within

Other Information
Maps:
NOTAMs:
Links:
Sources:

  
  • flag of United States
  • flag of Oklahoma
  

Sectional Chart

Flight Planning
at skyvector.com

Satellite Image

Google Maps Satellite view

 

Copyright © 2004-2019 Karl L. Swartz. All rights reserved.
The Great Circle Mapper name and logo are trademarks of the Great Circle Mapper.
All other trademarks mentioned herein belong to their respective owners.
Please see credits for attibutions and further copyright information.

  Follow gcmap on Facebook Follow gcmap on Twitter GCmap on LinkedIn

hCard Microformat

Geo Microformat